Check out our new BloomSky Weather System.

Active alerts


No alerts


Thunder radar  blitzortung!


Rain radar more information rain snow radar


Visit our other weather sites:

Template documentation
and downloads

And another site



Weather Underground History page Text

Daily Summary for June 27, 2017 Units:  Metric    English   Both
« Previous Day
Next Day »
Daily Weekly Monthly Yearly Custom
  High: Low: Average:
Temperature: -17.8 °C 24.9 °C 28.1 °C
Dew Point: -17.8 °C 22 °C 23.4 °C
Humidity: Humidity % 66 % 75 %
Wind Speed: 0 km/h 0 km/h 4.8 km/h
Wind Gust: 0 km/h - -
Wind:- - SE
Pressure: 0 hPa 1012.8 hPa -
Precipitation: 0 mm    
Historical Graphs
 
 
Tabular Data for June 27, 2017
Time Temperature Dew Point Pressure Wind Wind Speed Wind Gust Humidity Rainfall Rate (Hourly)
-17.8 °C -17.8 °C 0 hPa Calm     Humidity % 0 mm
06:33 29.8 °C 25.1 °C 1015.5 hPa NNW 11.3 km/h 11.3 km/h 76 % 0 mm
06:34 29.9 °C 25 °C 1015.5 hPa ENE 3.2 km/h 4.8 km/h 75 % 0 mm
06:35 29.9 °C 25 °C 1015.5 hPa SE 3.2 km/h 4.8 km/h 75 % 0 mm
06:36 29.9 °C 25 °C 1015.5 hPa SSW 3.2 km/h 11.3 km/h 75 % 0 mm
11:41 29.9 °C 24.5 °C 1015.5 hPa ENE 3.2 km/h -1607.7 km/h 73 % 0 mm
11:46 29.6 °C 24.9 °C 1015.5 hPa NW 1.6 km/h 9.7 km/h 76 % 0 mm
11:51 29.7 °C 24.8 °C 1015.5 hPa North 4.8 km/h 9.7 km/h 75 % 0 mm
11:56 29.9 °C 25 °C 1015.1 hPa NNW 6.4 km/h 9.7 km/h 75 % 0 mm
12:01 30 °C 24.6 °C 1015.1 hPa SSE 3.2 km/h 8 km/h 73 % 0 mm
12:06 30 °C 24.9 °C 1015.1 hPa SSW 3.2 km/h 11.3 km/h 74 % 0 mm
12:11 30.2 °C 24.6 °C 1015.1 hPa SE 6.4 km/h 12.9 km/h 72 % 0 mm
12:24 29.7 °C 24.8 °C 1015.1 hPa East 3.2 km/h 16.1 km/h 75 % 0 mm
12:29 29.8 °C 24.7 °C 1015.1 hPa ENE 4.8 km/h 16.1 km/h 74 % 0 mm
12:34 29.8 °C 24.4 °C 1015.1 hPa North 3.2 km/h 11.3 km/h 73 % 0 mm
12:39 29.7 °C 24.6 °C 1015.1 hPa SE 3.2 km/h 11.3 km/h 74 % 0 mm
12:44 29.4 °C 24.5 °C 1015.1 hPa SSE 4.8 km/h 11.3 km/h 75 % 0 mm
12:49 29.3 °C 25.3 °C 1015.1 hPa ESE 1.6 km/h 14.5 km/h 79 % 0 mm
12:54 28.9 °C 24.9 °C 1015.1 hPa SSE 4.8 km/h 14.5 km/h 79 % 0 mm
12:59 28.7 °C 24 °C 1014.8 hPa SSE 4.8 km/h 14.5 km/h 76 % 0 mm
13:04 28.7 °C 23.8 °C 1014.8 hPa SE 6.4 km/h 16.1 km/h 75 % 0 mm
13:09 29 °C 24.1 °C 1014.8 hPa ENE 8 km/h 17.7 km/h 75 % 0 mm
13:14 29.4 °C 24 °C 1014.4 hPa SSW 9.7 km/h 17.7 km/h 73 % 0 mm
13:19 29.8 °C 24.4 °C 1014.8 hPa ENE 3.2 km/h 17.7 km/h 73 % 0 mm
13:24 29.5 °C 23.4 °C 1014.8 hPa South 6.4 km/h 16.1 km/h 70 % 0 mm
13:27 29.6 °C 24 °C 1014.8 hPa East 4.8 km/h 16.1 km/h 72 % 0 mm
13:32 29.7 °C 23.6 °C 1014.8 hPa East 6.4 km/h 16.1 km/h 70 % 0 mm
13:37 29.8 °C 23.7 °C 1014.8 hPa ENE 8 km/h 12.9 km/h 70 % 0 mm
13:42 29.8 °C 23.5 °C 1014.4 hPa ESE 3.2 km/h 12.9 km/h 69 % 0 mm
13:47 30.1 °C 23.8 °C 1014.4 hPa South 4.8 km/h 12.9 km/h 69 % 0 mm
13:52 30.4 °C 24.1 °C 1014.4 hPa SSE 8 km/h 12.9 km/h 69 % 0 mm
13:56 30.4 °C 24.1 °C 1014.4 hPa ESE 9.7 km/h 14.5 km/h 69 % 0 mm
14:01 30.1 °C 23.8 °C 1014.4 hPa South 1.6 km/h 16.1 km/h 69 % 0 mm
14:06 30.1 °C 23.8 °C 1014.4 hPa SE 9.7 km/h 16.1 km/h 69 % 0 mm
14:11 30.3 °C 24 °C 1014.4 hPa ESE 3.2 km/h 16.1 km/h 69 % 0 mm
14:12 30.4 °C 24.1 °C 1014.4 hPa ESE 8 km/h 16.1 km/h 69 % 0 mm
14:17 30.6 °C 24.3 °C 1014.1 hPa East 11.3 km/h 17.7 km/h 69 % 0 mm
14:22 30.7 °C 23.9 °C 1014.4 hPa NE 4.8 km/h 17.7 km/h 67 % 0 mm
14:27 31.1 °C 24 °C 1014.4 hPa ESE 11.3 km/h 17.7 km/h 66 % 0 mm
14:32 30.9 °C 24.3 °C 1014.4 hPa North 4.8 km/h 17.7 km/h 68 % 0 mm
14:37 30.9 °C 24.1 °C 1014.4 hPa SSE 4.8 km/h 24.1 km/h 67 % 0 mm
14:42 30.6 °C 23.5 °C 1014.4 hPa ENE 9.7 km/h 24.1 km/h 66 % 0 mm
14:47 30.3 °C 24 °C 1014.1 hPa SSE 4.8 km/h 24.1 km/h 69 % 0 mm
14:52 30.4 °C 24.3 °C 1014.1 hPa SE 6.4 km/h 20.9 km/h 70 % 0 mm
14:57 30.4 °C 24.3 °C 1014.1 hPa SE 6.4 km/h 17.7 km/h 70 % 0 mm
15:02 30 °C 23.2 °C 1014.4 hPa ESE 6.4 km/h 27.4 km/h 67 % 0 mm
15:07 29.3 °C 22.8 °C 1014.4 hPa ENE 14.5 km/h 27.4 km/h 68 % 0 mm
15:12 29.2 °C 22.7 °C 1014.4 hPa WSW 4.8 km/h 27.4 km/h 68 % 0 mm
15:17 29.1 °C 22.8 °C 1014.4 hPa SSE 8 km/h 24.1 km/h 69 % 0 mm
15:22 28.8 °C 22.3 °C 1014.4 hPa SSW 4.8 km/h 24.1 km/h 68 % 0 mm
15:27 28.7 °C 22 °C 1014.4 hPa East 9.7 km/h 20.9 km/h 67 % 0 mm
15:32 28.7 °C 22.4 °C 1014.4 hPa ENE 8 km/h 20.9 km/h 69 % 0 mm
15:37 28.5 °C 22.7 °C 1014.4 hPa SSE 9.7 km/h 17.7 km/h 71 % 0 mm
15:42 28.4 °C 23.5 °C 1014.1 hPa SE 8 km/h 17.7 km/h 75 % 0 mm
15:47 28.2 °C 23.3 °C 1014.1 hPa East 4.8 km/h 17.7 km/h 75 % 0 mm
15:52 28 °C 23.4 °C 1013.8 hPa SSE 4.8 km/h 16.1 km/h 76 % 0 mm
15:57 28.2 °C 23.6 °C 1013.8 hPa SE 8 km/h 16.1 km/h 76 % 0 mm
16:02 28.1 °C 23.2 °C 1013.4 hPa East 9.7 km/h 16.1 km/h 75 % 0 mm
16:07 28.2 °C 23.6 °C 1013.4 hPa ESE 8 km/h 17.7 km/h 76 % 0 mm
16:12 28.5 °C 24.3 °C 1013.4 hPa ESE 8 km/h 17.7 km/h 78 % 0 mm
16:17 28.7 °C 23.6 °C 1013.4 hPa ESE 8 km/h 19.3 km/h 74 % 0 mm
16:22 28.8 °C 23.5 °C 1013.4 hPa SSE 6.4 km/h 19.3 km/h 73 % 0 mm
16:27 28.9 °C 24.2 °C 1013.4 hPa SE 1.6 km/h 19.3 km/h 76 % 0 mm
16:32 29.2 °C 24.3 °C 1013.4 hPa SSE 8 km/h 19.3 km/h 75 % 0 mm
16:37 29.3 °C 24.2 °C 1013.4 hPa ESE 9.7 km/h 19.3 km/h 74 % 0 mm
16:42 29.3 °C 24 °C 1013.4 hPa East 9.7 km/h 16.1 km/h 73 % 0 mm
16:47 29.4 °C 24 °C 1013.4 hPa SE 8 km/h 16.1 km/h 73 % 0 mm
16:53 29.6 °C 24.2 °C 1013.1 hPa SE 9.7 km/h 19.3 km/h 73 % 0 mm
17:06 29.6 °C 24 °C 1013.1 hPa ENE 6.4 km/h 20.9 km/h 72 % 0 mm
17:11 29.6 °C 23.5 °C 1013.1 hPa East 11.3 km/h 20.9 km/h 70 % 0 mm
17:16 29.6 °C 23.3 °C 1012.8 hPa SSE 4.8 km/h 17.7 km/h 69 % 0 mm
17:21 29.7 °C 23.4 °C 1012.8 hPa SE 6.4 km/h 17.7 km/h 69 % 0 mm
17:26 29.7 °C 23.6 °C 1013.1 hPa SE 11.3 km/h 17.7 km/h 70 % 0 mm
17:31 29.7 °C 23.9 °C 1013.1 hPa SSE 9.7 km/h 16.1 km/h 71 % 0 mm
17:36 29.6 °C 24.2 °C 1013.1 hPa SSE 9.7 km/h 16.1 km/h 73 % 0 mm
17:41 29.4 °C 24 °C 1013.1 hPa SE 8 km/h 16.1 km/h 73 % 0 mm
17:46 29.2 °C 23.9 °C 1013.1 hPa SE 8 km/h 16.1 km/h 73 % 0 mm
17:52 29.3 °C 24 °C 1012.8 hPa SSE 8 km/h 16.1 km/h 73 % 0 mm
17:57 29.4 °C 24 °C 1012.8 hPa South 8 km/h 16.1 km/h 73 % 0 mm
18:02 29.4 °C 24 °C 1012.8 hPa East 4.8 km/h 16.1 km/h 73 % 0 mm
18:07 29.4 °C 23.6 °C 1012.8 hPa East 6.4 km/h 16.1 km/h 71 % 0 mm
18:12 29.3 °C 23.3 °C 1013.1 hPa ENE 6.4 km/h 14.5 km/h 70 % 0 mm
18:17 29.2 °C 23.2 °C 1012.8 hPa ESE 3.2 km/h 14.5 km/h 70 % 0 mm
18:22 29.1 °C 23.1 °C 1012.8 hPa ENE 9.7 km/h 14.5 km/h 70 % 0 mm
18:27 29.1 °C 23.3 °C 1012.8 hPa ENE 1.6 km/h 14.5 km/h 71 % 0 mm
18:32 29.1 °C 23.3 °C 1012.8 hPa SE 16.1 km/h 16.1 km/h 71 % 0 mm
18:37 28.9 °C 23.1 °C 1012.8 hPa SSE 6.4 km/h 16.1 km/h 71 % 0 mm
18:42 28.8 °C 23.2 °C 1012.8 hPa SE 3.2 km/h 16.1 km/h 72 % 0 mm
18:47 28.9 °C 23.1 °C 1012.8 hPa SE 1.6 km/h 16.1 km/h 71 % 0 mm
18:52 28.8 °C 23 °C 1012.8 hPa SSE 6.4 km/h 11.3 km/h 71 % 0 mm
18:57 28.7 °C 22.4 °C 1013.1 hPa SSW 6.4 km/h 11.3 km/h 69 % 0 mm
19:02 28.6 °C 22.4 °C 1013.1 hPa SE 1.6 km/h 11.3 km/h 69 % 0 mm
19:07 28.5 °C 22.7 °C 1013.1 hPa ENE 4.8 km/h 9.7 km/h 71 % 0 mm
19:12 28.5 °C 23 °C 1013.1 hPa Calm   9.7 km/h 72 % 0 mm
19:17 28.6 °C 23.1 °C 1013.1 hPa ENE 1.6 km/h 8 km/h 72 % 0 mm
19:22 28.6 °C 23.1 °C 1013.1 hPa ESE 3.2 km/h 8 km/h 72 % 0 mm
19:27 28.6 °C 23.3 °C 1013.1 hPa ESE 3.2 km/h 8 km/h 73 % 0 mm
19:32 28.4 °C 23.1 °C 1013.1 hPa East 6.4 km/h 9.7 km/h 73 % 0 mm
19:37 28.3 °C 23 °C 1013.4 hPa ESE 4.8 km/h 12.9 km/h 73 % 0 mm
19:42 28.3 °C 23.2 °C 1013.4 hPa SE 4.8 km/h 12.9 km/h 74 % 0 mm
19:47 28.3 °C 23.4 °C 1013.4 hPa ESE 6.4 km/h 12.9 km/h 75 % 0 mm
19:52 28.2 °C 23.3 °C 1013.4 hPa East 3.2 km/h 8 km/h 75 % 0 mm
19:57 28.1 °C 23.5 °C 1013.4 hPa East 3.2 km/h 8 km/h 76 % 0 mm
20:02 28.1 °C 23.5 °C 1013.4 hPa East 1.6 km/h 8 km/h 76 % 0 mm
20:07 27.9 °C 23.3 °C 1013.4 hPa East 8 km/h 8 km/h 76 % 0 mm
20:12 27.9 °C 23.3 °C 1013.4 hPa Calm   8 km/h 76 % 0 mm
20:17 27.8 °C 23.2 °C 1013.4 hPa North 3.2 km/h 8 km/h 76 % 0 mm
20:22 27.8 °C 23.4 °C 1013.1 hPa SE 3.2 km/h 8 km/h 77 % 0 mm
20:27 27.7 °C 23.3 °C 1013.1 hPa SSE 4.8 km/h 9.7 km/h 77 % 0 mm
20:32 27.7 °C 23.7 °C 1013.1 hPa SSE 6.4 km/h 11.3 km/h 79 % 0 mm
20:37 27.6 °C 23.8 °C 1013.1 hPa ESE 9.7 km/h 12.9 km/h 80 % 0 mm
20:42 27.4 °C 23.6 °C 1013.1 hPa SE 1.6 km/h 14.5 km/h 80 % 0 mm
20:47 27.3 °C 23.7 °C 1013.4 hPa ESE 3.2 km/h 14.5 km/h 81 % 0 mm
20:52 27.1 °C 23.6 °C 1013.4 hPa SE 9.7 km/h 14.5 km/h 81 % 0 mm
20:57 27.1 °C 23.8 °C 1013.4 hPa SE 3.2 km/h 12.9 km/h 82 % 0 mm
20:59 27 °C 23.7 °C 1013.4 hPa ESE 1.6 km/h 12.9 km/h 82 % 0 mm
21:04 26.9 °C 23.6 °C 1013.4 hPa SSE 1.6 km/h 11.3 km/h 82 % 0 mm
21:05 26.9 °C 23.8 °C 1013.4 hPa SE 3.2 km/h 12.9 km/h 83 % 0 mm
21:10 26.8 °C 23.7 °C 1013.4 hPa Calm   12.9 km/h 83 % 0 mm
21:15 26.8 °C 23.7 °C 1013.4 hPa NE 3.2 km/h 12.9 km/h 83 % 0 mm
21:20 26.7 °C 23.6 °C 1013.4 hPa SE 3.2 km/h 9.7 km/h 83 % 0 mm
21:22 26.7 °C 23.6 °C 1013.4 hPa ESE 4.8 km/h 9.7 km/h 83 % 0 mm
21:27 26.6 °C 23.7 °C 1013.1 hPa SE 4.8 km/h 12.9 km/h 84 % 0 mm
21:32 26.6 °C 23.7 °C 1013.1 hPa SE 6.4 km/h 12.9 km/h 84 % 0 mm
21:37 26.5 °C 23.6 °C 1013.1 hPa East 4.8 km/h 12.9 km/h 84 % 0 mm
21:42 26.4 °C 23.5 °C 1013.1 hPa South 3.2 km/h 12.9 km/h 84 % 0 mm
21:47 26.4 °C 23.5 °C 1013.1 hPa SE 3.2 km/h 12.9 km/h 84 % 0 mm
21:52 26.4 °C 23.5 °C 1013.1 hPa ESE 3.2 km/h 9.7 km/h 84 % 0 mm
21:57 26.3 °C 23.4 °C 1013.1 hPa Calm   9.7 km/h 84 % 0 mm
22:02 26.3 °C 23.4 °C 1013.1 hPa East 6.4 km/h 11.3 km/h 84 % 0 mm
22:07 26.3 °C 23.4 °C 1013.1 hPa SSE 1.6 km/h 11.3 km/h 84 % 0 mm
22:12 26.2 °C 23.5 °C 1013.1 hPa ESE 1.6 km/h 11.3 km/h 85 % 0 mm
22:17 26.2 °C 23.5 °C 1012.8 hPa SE 3.2 km/h 8 km/h 85 % 0 mm
22:22 26.1 °C 23.4 °C 1013.1 hPa SE 1.6 km/h 8 km/h 85 % 0 mm
22:27 26 °C 23.3 °C 1013.1 hPa Calm   8 km/h 85 % 0 mm
22:32 25.9 °C 23.2 °C 1013.1 hPa Calm   6.4 km/h 85 % 0 mm
22:37 25.8 °C 23.3 °C 1013.1 hPa Calm   3.2 km/h 86 % 0 mm
22:42 25.7 °C 23.2 °C 1013.1 hPa Calm   3.2 km/h 86 % 0 mm
22:47 25.7 °C 23.2 °C 1013.1 hPa Calm   3.2 km/h 86 % 0 mm
22:52 25.6 °C 23.1 °C 1013.1 hPa Calm   3.2 km/h 86 % 0 mm
22:58 25.5 °C 23 °C 1013.1 hPa Calm   3.2 km/h 86 % 0 mm
23:03 25.4 °C 23.1 °C 1013.1 hPa Calm   4.8 km/h 87 % 0 mm
23:08 25.4 °C 23.1 °C 1013.1 hPa Calm   4.8 km/h 87 % 0 mm
23:13 25.3 °C 23 °C 1013.1 hPa Calm   4.8 km/h 87 % 0 mm
23:18 25.2 °C 23.1 °C 1013.4 hPa Calm   1.6 km/h 88 % 0 mm
23:23 25.2 °C 23.1 °C 1013.1 hPa Calm   3.2 km/h 88 % 0 mm
23:28 25.2 °C 23.1 °C 1013.1 hPa Calm   3.2 km/h 88 % 0 mm
23:33 25.2 °C 23.1 °C 1013.1 hPa ESE 1.6 km/h 4.8 km/h 88 % 0 mm
23:38 25.2 °C 23.1 °C 1013.4 hPa Calm   4.8 km/h 88 % 0 mm
23:43 25.1 °C 23.2 °C 1013.4 hPa Calm   4.8 km/h 89 % 0 mm
23:48 25.1 °C 23.2 °C 1013.4 hPa Calm   4.8 km/h 89 % 0 mm
23:53 25 °C 23.1 °C 1013.4 hPa Calm   3.2 km/h 89 % 0 mm
23:58 24.9 °C 23 °C 1013.4 hPa Calm   3.2 km/h 89 % 0 mm
Spring, Texas: Villages of Bridgestone
Compliments of Weather Underground - 2 mb

Script developed by  Jim McMurry - jmcmurry@mwt.net Adapted for the template by  Wim van der Kuil - Leuven-Template.eu

You find our weather info also at:

UK Metoffice

WeatherCloud

Weather Underground

Mid-South Weather Network

AWEKAS

Citizen Weather Observer Program (CWOP)

HAMweather, WeatherForYou, PWS Weather

Equipment we use:

Weather-station
Davis Vantage Vue

Weather-program
Meteohub

Weather-server
Debian 7.9 x86 (Guest)

Provider
DreamHost

Davis Vantage Vue

Meteohub

Debian 7.9 x86 (Guest)

DreamHost